Weather History for KBMI - June, 2014

Change the Weather History Date:

Monday, June 9, 2014

  Actual Average Record
Temperature  
Mean Temperature 64 °F -  
Max Temperature 79 °F 87 °F 91 °F (1976)
Min Temperature 50 °F 53 °F 47 °F (1978)
Degree Days  
Heating Degree Days 2    
Growing Degree Days 14 (Base 50)    
Moisture  
Dew Point 53 °F    
Average Humidity 67    
Maximum Humidity 81    
Minimum Humidity 51    
Precipitation  
Precipitation 0.00 in - - ()
Sea Level Pressure  
Sea Level Pressure 29.93 in    
Wind  
Wind Speed 7 mph (East)    
Max Wind Speed 13 mph    
Max Gust Speed -    
Visibility 10 miles    
Events      
Averages and records for this station are not official NWS values.
T = Trace of Precipitation, MM = Missing Value Source: NWS Daily Summary

Daily Weather History Graph

Daily Weather History Graph

Search for Another Location

Airport or City:

Trip Planner

Search our weather history database for the weather conditions in past years. The results will help you decide how hot, cold, wet, or windy it might be!

Date:

Astronomy

Jun. 09, 2014 Rise Set
Actual Time 5:25 AM CDT 8:25 PM CDT
Civil Twilight 4:52 AM CDT 8:58 PM CDT
Nautical Twilight 4:10 AM CDT 9:39 PM CDT
Astronomical Twilight 3:21 AM CDT 10:28 PM CDT
Moon 4:45 PM CDT (6/9) 2:53 AM CDT (6/9)
Length of Visible Light 16h 05m
Length of Day
14h 59m
Waxing Gibbous, 85% of the Moon is Illuminated
Jun 9
Waxing Gibbous
Jun 12
Full
Jun 19
Last Quarter
Jun 27
New
Jul 5
First Quarter

Hourly Weather History & Observations

Time (CDT) Temp. Dew Point Humidity Pressure Visibility Wind Dir Wind Speed Gust Speed Precip Events Conditions
12:56 AM 55.9 °F 43.9 °F 64% 30.01 in 10.0 mi ENE 6.9 mph - N/A   Clear
1:56 AM 54.9 °F 43.0 °F 64% 29.99 in 10.0 mi NNE 8.1 mph - N/A   Clear
2:56 AM 52.9 °F 45.0 °F 74% 29.99 in 10.0 mi ENE 4.6 mph - N/A   Clear
3:56 AM 52.0 °F 45.0 °F 77% 29.97 in 10.0 mi NE 9.2 mph - N/A   Clear
4:56 AM 50.9 °F 45.0 °F 80% 29.99 in 10.0 mi NE 3.5 mph - N/A   Clear
5:56 AM 50.9 °F 45.0 °F 80% 29.99 in 10.0 mi NE 6.9 mph - N/A   Clear
6:56 AM 54.9 °F 45.9 °F 72% 29.98 in 10.0 mi NE 8.1 mph - N/A   Clear
7:56 AM 59.0 °F 48.9 °F 69% 29.97 in 10.0 mi ENE 8.1 mph - N/A   Clear
8:56 AM 64.9 °F 52.9 °F 65% 29.97 in 10.0 mi East 9.2 mph - N/A   Clear
9:56 AM 68.9 °F 57.9 °F 68% 29.96 in 10.0 mi East 6.9 mph - N/A   Clear
10:56 AM 70.9 °F 59.9 °F 68% 29.96 in 10.0 mi SE 5.8 mph - N/A   Clear
11:56 AM 72.9 °F 61.9 °F 68% 29.96 in 10.0 mi SE 8.1 mph - N/A   Mostly Cloudy
12:56 PM 75.9 °F 61.0 °F 60% 29.94 in 10.0 mi SE 5.8 mph - N/A   Mostly Cloudy
2:56 PM 77.9 °F 59.0 °F 52% 29.91 in 10.0 mi SSE 9.2 mph - N/A   Partly Cloudy
3:56 PM 77.0 °F 57.9 °F 52% 29.89 in 10.0 mi ESE 8.1 mph - N/A   Partly Cloudy
4:56 PM 75.9 °F 56.8 °F 51% 29.88 in 10.0 mi SE 9.2 mph - N/A   Clear
5:56 PM 74.8 °F 57.9 °F 55% 29.88 in 10.0 mi SE 12.7 mph - N/A   Clear
6:56 PM 72.9 °F 55.9 °F 55% 29.88 in 10.0 mi ESE 8.1 mph - N/A   Clear
7:56 PM 68.9 °F 59.0 °F 71% 29.86 in 10.0 mi East 5.8 mph - N/A   Clear
8:56 PM 68.9 °F 56.8 °F 65% 29.86 in 10.0 mi SE 6.9 mph - N/A   Clear
10:56 PM 65.8 °F 59.9 °F 81% 29.86 in 10.0 mi East 8.1 mph - N/A   Overcast
11:56 PM 65.8 °F 57.9 °F 76% 29.86 in 10.0 mi ESE 8.1 mph - N/A   Mostly Cloudy